Flag for Germany Weather past 2 weeks in Friesoythe, Lower Saxony, Germany

Now
34 °F

Chilly.


Feels Like: 29 °F
Forecast: 26 / 35 °F
Wind: 6 mph from Southeast

Location: Meppen-Mil

Current Time: Dec 27, 2014 at 2:48:41 AM

Latest Report: Dec 27, 2014 at 2:20 AM


Visibility: 2 mi

Pressure: 29.95 "Hg

Humidity: 100%

Dew point: 34 °F

Location of FriesoytheLocation

Historic Weather in Friesoythe — Graph

°F

Friesoythe temperature yesterday

Maximum temperature yesterday: 34 °F (at 10:20 PM)
Minimum temperature yesterday: 28 °F (at 8:20 AM)
Average temperature yesterday: 31 °F

Past Weeks' High & Low Weather Summary

 TemperatureHumidityPressure
High55 °F (Dec 22, 2:50 PM)100% (Dec 17, 3:20 PM)30.36 "Hg (Dec 17, 3:20 PM)
Low28 °F (Dec 26, 8:20 AM)53% (Dec 25, 2:20 PM)29.24 "Hg (Dec 12, 11:20 AM)
Average44 °F86%29.87 "Hg
* Reported Dec 12 1:20 AM — Dec 27 1:20 AM, Friesoythe, Weather by CustomWeather, © 2014

Note: Actual official high and low records may vary slightly from our data, if they occured in-between our weather recording intervals... More about our weather records

Advertising

Friesoythe weather history for previous 24 hours

 ConditionsComfort  
Time TempWeatherWind HumidityBarometerVisibility
1:20 AM
Dec 27
36 °FChilly.7 mph93%29.98 "Hg1 mi
12:20 AM34 °FChilly.6 mph100%30.04 "Hg1 mi
11:20 PM
Dec 26
34 °FChilly.5 mph100%30.09 "Hg1 mi
10:20 PM34 °FChilly.6 mph93%30.12 "Hg0 mi
9:20 PM32 °FChilly.5 mph100%30.15 "Hg0 mi
8:20 PM32 °FChilly.5 mph100%30.21 "Hg0 mi
7:20 PM32 °FChilly.3 mph100%30.21 "Hg0 mi
6:20 PM32 °FChilly.3 mph100%30.24 "Hg0 mi
5:20 PM32 °FChilly.3 mph100%30.27 "Hg0 mi
4:20 PM32 °FChilly.3 mph93%30.30 "Hg0 mi
3:20 PM32 °FChilly.3 mph93%30.30 "Hg0 mi
2:20 PM32 °FChilly.2 mph93%30.33 "Hg0 mi
1:20 PM32 °FChilly.2 mph93%30.33 "Hg0 mi
12:20 PM30 °FChilly.3 mph100%30.36 "Hg0 mi
11:20 AM30 °FChilly.3 mph100%30.36 "Hg0 mi
10:20 AM28 °FChilly.2 mph100%30.36 "Hg0 mi
9:20 AM28 °FChilly.1 mph100%30.36 "Hg0 mi
8:20 AM28 °FChilly.1 mph100%30.36 "Hg0 mi
7:20 AM30 °FChilly.2 mph93%30.36 "Hg0 mi
6:20 AM32 °FChilly.1 mph93%30.33 "Hg0 mi
5:20 AM32 °FChilly.1 mph93%30.36 "Hg2 mi
4:20 AM32 °FChilly.2 mph93%30.33 "Hg3 mi
3:20 AM32 °FChilly.3 mph100%30.33 "Hg1 mi
2:20 AM32 °FChilly.1 mph93%30.33 "Hg4 mi
Weather by CustomWeather, © 2014

See weather overviewHow to use our weather pages